This is the latest recevied weather packets stored in our database for station/object IW3HBX-13. If no packets are shown the sender has not sent any weather packets the latest 10 day(s).
| Time | Temp. | Humidity | Pressure | Rain* | Wind** | Luminosity | Snow |
|---|---|---|---|---|---|---|---|
| 1777815007 | 25° C | 40% | 1017.8 hPa | 0 mm | - | 427 W/m² | - |
| 1777814648 | 25° C | 41% | 1018 hPa | 0 mm | - | 553 W/m² | - |
| 1777814287 | 25° C | 40% | 1018 hPa | 0 mm | - | 561 W/m² | - |
| 1777813928 | 25.56° C | 40% | 1018.1 hPa | 0 mm | - | 529 W/m² | - |
| 1777813567 | 25° C | 40% | 1018 hPa | 0 mm | - | 733 W/m² | - |
| 1777812847 | 25.56° C | 39% | 1018.2 hPa | 0 mm | - | 764 W/m² | - |
| 1777812488 | 25° C | 40% | 1018.3 hPa | 0 mm | - | 774 W/m² | - |
| 1777812127 | 25° C | 40% | 1018.3 hPa | 0 mm | - | 781 W/m² | - |
| 1777811771 | 25.56° C | 41% | 1018.3 hPa | 0 mm | - | 811 W/m² | - |
| 1777811407 | 25° C | 42% | 1018.2 hPa | 0 mm | - | 830 W/m² | - |
| 1777811050 | 25° C | 43% | 1018.4 hPa | 0 mm | - | 835 W/m² | - |
| 1777810691 | 25° C | 41% | 1018.3 hPa | 0 mm | - | 698 W/m² | - |
| 1777810331 | 25° C | 43% | 1018.4 hPa | 0 mm | - | 724 W/m² | - |
| 1777809969 | 25° C | 43% | 1018.5 hPa | 0 mm | - | 825 W/m² | - |
| 1777809247 | 25.56° C | 38% | 1018.4 hPa | 0 mm | - | 837 W/m² | - |
| 1777808887 | 25.56° C | 35% | 1018.5 hPa | 0 mm | - | 832 W/m² | - |
| 1777808527 | 25° C | 36% | 1018.5 hPa | 0 mm | - | 835 W/m² | - |
| 1777808167 | 25° C | 37% | 1018.5 hPa | 0 mm | - | 833 W/m² | - |
| 1777807807 | 25° C | 36% | 1018.5 hPa | 0 mm | - | 844 W/m² | - |
| 1777807447 | 24.44° C | 37% | 1018.6 hPa | 0 mm | - | 809 W/m² | - |
| 1777807088 | 25.56° C | 36% | 1018.7 hPa | 0 mm | - | 822 W/m² | - |
| 1777806727 | 25° C | 37% | 1018.7 hPa | 0 mm | - | 834 W/m² | - |
| 1777806370 | 25.56° C | 38% | 1018.8 hPa | 0 mm | - | 839 W/m² | - |
| 1777805647 | 25° C | 36% | 1018.9 hPa | 0 mm | - | 841 W/m² | - |
| 1777805289 | 25° C | 38% | 1018.8 hPa | 0 mm | - | 831 W/m² | - |
* Rain latest hour (hover to see other rain measurements)
** Current wind speed in m/s (hover to see current wind gust speed)